sat.trackr.live / text

‹ back to catalog

CAPELLA-13 (ACADIA-3)

NORAD 60419 · 2024-142A

PAYLOAD ACTIVE UNKNOWN

§ Identity

Operator
Country
US
Launch date
2024-08-11
Launch site
RLLB
Launch vehicle
Mass (kg)
RCS (m²)

External: N2YO · Heavens-Above · Gunter

§ Orbital elements

Epoch: 2026-09-21T13:46:34.525344Z

Period
96.80 min
Inclination
53.0077°
Eccentricity
0.0001365
Mean motion
14.87652311 rev/d
Perigee alt
604.3 km
Apogee alt
606.2 km
Semi-major
6,983.4 km
B*
1.7512e-4
RAAN
356.8382°
Arg perigee
90.1164°
Mean anomaly
269.9973°
Rev number
11,475

§ Raw data

CAPELLA-13 (ACADIA-3)1 60419U 24142A   26264.57401071  .00001373  00000+0  17512-3 0  99902 60419  53.0077 356.8382 0001365  90.1164 269.9973 14.87652311114756

JSON: /api/v1/satellites/60419 · /tle

For live sub-satellite position, see the globe view (requires WebGL).

§ Visibility from observer

Set your observer location to see the next 7 days of passes ≥ 10°. The values pass through the URL so the page stays shareable.

No JS? Fill the form by hand. The geolocation button needs JavaScript.